Time,TemperatureF,DewpointF,PressureIn,WindDirection,WindDirectionDegrees,WindSpeedMPH,WindSpeedGustMPH,Humidity,HourlyPrecipIn,Conditions,Clouds,dailyrainin,SoftwareType,DateUTC
2013-02-20 00:20:00,25.0,24.0,-100.00,SSE,167,0.0,1.0,95,-99.99,,,-99.99,,2013-02-20 08:20:00,
2013-02-20 01:01:00,25.0,24.0,-100.00,SSE,167,0.0,1.0,95,-99.99,,,-99.99,,2013-02-20 09:01:00,
2013-02-20 01:10:00,24.0,23.0,-100.00,North,-999,0.0,0.0,95,-99.99,,,-99.99,,2013-02-20 09:10:00,
2013-02-20 01:11:00,25.0,24.0,-100.00,SSE,167,0.0,1.0,95,-99.99,,,-99.99,,2013-02-20 09:11:00,
2013-02-20 02:01:00,24.0,23.0,-100.00,North,-999,0.0,0.0,95,-99.99,,,-99.99,,2013-02-20 10:01:00,
2013-02-20 03:02:00,23.0,23.0,-100.00,North,-999,0.0,0.0,100,-99.99,,,-99.99,,2013-02-20 11:02:00,
2013-02-20 03:10:00,23.0,23.0,-100.00,ESE,102,0.0,1.0,100,-99.99,,,-99.99,,2013-02-20 11:10:00,
2013-02-20 03:11:00,23.0,23.0,-100.00,North,-999,0.0,0.0,100,-99.99,,,-99.99,,2013-02-20 11:11:00,
2013-02-20 04:01:00,23.0,23.0,-100.00,ESE,102,0.0,1.0,100,-99.99,,,-99.99,,2013-02-20 12:01:00,
2013-02-20 05:01:00,22.0,22.0,-100.00,East,83,0.0,1.0,100,-99.99,,,-99.99,,2013-02-20 13:01:00,
2013-02-20 05:11:00,22.0,22.0,-100.00,East,83,0.0,1.0,100,-99.99,,,-99.99,,2013-02-20 13:11:00,
2013-02-20 06:01:00,21.0,21.0,-100.00,South,186,0.0,1.0,100,-99.99,,,-99.99,,2013-02-20 14:01:00,
2013-02-20 06:11:00,21.0,21.0,-100.00,South,186,0.0,1.0,100,-99.99,,,-99.99,,2013-02-20 14:11:00,
2013-02-20 07:01:00,20.0,20.0,-100.00,SW,216,0.0,1.0,100,-99.99,,,-99.99,,2013-02-20 15:01:00,
2013-02-20 07:11:00,20.0,20.0,-100.00,SW,216,0.0,1.0,100,-99.99,,,-99.99,,2013-02-20 15:11:00,
2013-02-20 08:01:00,20.0,-99.9,-100.00,SW,232,0.0,1.0,-999,-99.99,,,-99.99,,2013-02-20 16:01:00,
2013-02-20 09:01:00,21.0,-99.9,-100.00,SSE,157,1.0,2.0,-999,-99.99,,,-99.99,,2013-02-20 17:01:00,
2013-02-20 09:10:00,24.0,-99.9,-100.00,SW,223,0.0,1.0,-999,-99.99,,,-99.99,,2013-02-20 17:10:00,
2013-02-20 09:12:00,21.0,-99.9,-100.00,SSE,157,1.0,2.0,-999,-99.99,,,-99.99,,2013-02-20 17:12:00,
2013-02-20 10:02:00,24.0,-99.9,-100.00,SW,223,0.0,1.0,-999,-99.99,,,-99.99,,2013-02-20 18:02:00,
2013-02-20 11:01:00,33.0,33.0,-100.00,WSW,248,1.0,2.0,100,-99.99,,,-99.99,,2013-02-20 19:01:00,
2013-02-20 12:01:00,40.0,27.0,-100.00,NW,318,1.0,5.0,59,-99.99,,,-99.99,,2013-02-20 20:01:00,
2013-02-20 12:10:00,40.0,23.0,-100.00,ESE,106,2.0,8.0,50,-99.99,,,-99.99,,2013-02-20 20:10:00,
2013-02-20 13:01:00,40.0,23.0,-100.00,ESE,106,2.0,8.0,50,-99.99,,,-99.99,,2013-02-20 21:01:00,
2013-02-20 14:00:00,39.0,22.0,-100.00,SE,134,6.0,12.0,50,-99.99,,,-99.99,,2013-02-20 22:00:00,
2013-02-20 14:01:00,40.0,22.0,-100.00,SE,124,3.0,10.0,48,-99.99,,,-99.99,,2013-02-20 22:01:00,
2013-02-20 15:00:00,39.0,24.0,-100.00,ESE,112,3.0,9.0,54,-99.99,,,-99.99,,2013-02-20 23:00:00,
2013-02-20 16:10:00,38.0,25.0,-100.00,ESE,116,2.0,7.0,59,-99.99,,,-99.99,,2013-02-21 00:10:00,
2013-02-20 17:01:00,38.0,25.0,-100.00,ESE,116,2.0,7.0,59,-99.99,,,-99.99,,2013-02-21 01:01:00,
2013-02-20 17:20:00,37.0,26.0,-100.00,ESE,116,1.0,3.0,64,-99.99,,,-99.99,,2013-02-21 01:20:00,
2013-02-20 18:01:00,37.0,26.0,-100.00,ESE,116,1.0,3.0,64,-99.99,,,-99.99,,2013-02-21 02:01:00,
2013-02-20 18:10:00,34.0,27.0,-100.00,SE,127,1.0,2.0,75,-99.99,,,-99.99,,2013-02-21 02:10:00,
2013-02-20 18:11:00,37.0,26.0,-100.00,ESE,116,1.0,3.0,64,-99.99,,,-99.99,,2013-02-21 02:11:00,
2013-02-20 19:01:00,34.0,27.0,-100.00,SE,127,1.0,2.0,75,-99.99,,,-99.99,,2013-02-21 03:01:00,
2013-02-20 20:01:00,29.0,25.0,-100.00,SE,131,0.0,1.0,84,-99.99,,,-99.99,,2013-02-21 04:01:00,
2013-02-20 20:10:00,28.0,25.0,-100.00,South,186,0.0,1.0,88,-99.99,,,-99.99,,2013-02-21 04:10:00,
2013-02-20 20:11:00,29.0,25.0,-100.00,SE,131,0.0,1.0,84,-99.99,,,-99.99,,2013-02-21 04:11:00,
2013-02-20 21:02:00,28.0,25.0,-100.00,South,186,0.0,1.0,88,-99.99,,,-99.99,,2013-02-21 05:02:00,
2013-02-20 22:01:00,27.0,25.0,-100.00,East,97,0.0,1.0,92,-99.99,,,-99.99,,2013-02-21 06:01:00,
2013-02-20 22:11:00,27.0,25.0,-100.00,East,97,0.0,1.0,92,-99.99,,,-99.99,,2013-02-21 06:11:00,
2013-02-20 23:00:00,26.0,25.0,-100.00,NE,48,0.0,1.0,95,-99.99,,,-99.99,,2013-02-21 07:00:00,
2013-02-20 23:01:00,27.0,25.0,-100.00,SE,127,1.0,3.0,92,-99.99,,,-99.99,,2013-02-21 07:01:00,